CAPE
103 20 4 0 4 0 2 2 2 4 0 0 0 0 0 0 0 4 44 65 52 103 66 90 67 12 0 0 17 41 43 15 46 39 51 44 4 0 0 0 0 0 0 0
1 5 1 5 16 2 6 2 3 2 0 0 0 0 0 0 0 1 44 77 68 96 0 0 0 0 0 0 0 0 0 0 0 0 1 0 0 0 0 0 0 0 0 0
4 1 12 12 6 3 1 2 5 1 0 0 0 0 0 0 0 0 9 103 115 30 0 0 0 0 0 0 0 0 0 0 0 0 0 0 0 0 0 0 0 0 0 0
1 0 6 20 13 0 1 2 6 0 0 1 0 0 0 0 0 0 0 41 102 20 0 0 0 0 0 0 0 0 0 0 0 0 0 0 0 0 0 0 0 0 0 0
0 2 11 3 6 13 2 8 8 1 2 2 0 15 0 0 0 0 0 0 41 0 0 0 0 0 0 0 0 0 0 0 0 0 0 0 0 0 0 0 0 0 0 0
1 0 1 19 24 25 28 8 6 9 6 0 0 3 0 0 0 0 0 0 0 0 0 0 0 0 0 0 0 0 0 0 0 0 0 0 0 0 0 0 0 0 0 0
1 0 0 2 10 5 16 12 0 0 0 0 0 0 1 0 0 0 0 0 0 0 0 0 0 0 0 0 0 0 0 0 0 0 0 0 0 0 0 0 0 0 0 0
0 0 0 5 0 1 2 3 0 0 0 0 0 0 0 0 0 0 0 0 0 0 0 0 0 0 0 0 0 0 0 0 0 0 0 0 0 0 0 0 0 0 0 0
0 0 0 1 0 2 1 0 0 0 0 0 0 0 0 0 0 0 0 0 0 0 0 0 0 0 0 0 0 0 0 0 0 0 0 0 0 0 0 0 0 0 0 0
6 0 0 0 0 0 0 0 0 0 0 0 0 0 0 0 0 0 0 0 0 0 0 0 0 0 0 0 0 0 0 0 0 0 0 0 0 0 0 0 0 0 0 0
2 0 1 0 3 1 1 0 0 0 0 0 0 0 0 0 0 0 0 0 0 0 0 0 0 0 0 0 0 0 0 0 0 0 0 0 0 0 0 0 0 0 0 0
14 0 0 0 1 0 0 0 0 0 0 0 0 0 0 0 0 0 0 0 0 0 0 0 0 0 0 0 0 0 0 0 0 0 0 0 0 0 0 0 0 0 0 0
5 0 0 0 1 0 1 0 0 0 0 0 0 0 0 0 0 0 0 0 0 0 0 0 0 0 0 0 0 0 0 0 0 0 0 0 0 0 0 0 0 0 0 0
18 0 0 0 0 1 1 0 0 0 0 0 0 0 0 0 0 0 0 0 0 1 0 0 0 0 0 0 0 0 0 0 0 0 0 0 0 0 0 0 0 0 0 0
8 0 1 0 1 0 0 0 0 0 0 0 0 0 0 0 0 0 0 0 0 0 0 0 0 0 0 0 0 0 0 0 0 0 0 0 0 0 0 0 0 0 0 0
0 0 0 0 0 0 0 2 3 0 0 0 0 0 0 0 0 0 0 0 0 0 0 0 0 0 0 0 0 0 0 0 0 0 0 0 0 0 0 0 0 0 0 0
3 0 0 0 0 0 0 0 0 0 0 0 0 0 0 0 0 0 0 0 0 0 0 0 0 0 0 0 0 0 0 0 0 0 0 0 0 0 0 0 0 0 0 0
0 0 0 0 0 0 0 0 0 0 0 0 0 0 0 0 0 0 0 0 0 0 0 0 0 0 0 0 0 0 0 0 0 0 0 0 0 0 0 0 0 0 0 0
0 0 0 0 0 0 0 0 0 0 0 0 0 0 0 0 0 0 0 0 0 0 0 0 0 0 0 0 0 0 0 0 0 0 0 0 0 0 0 0 0 0 0 0
0 0 0 0 0 0 0 0 0 0 0 0 0 0 0 0 0 0 0 0 0 0 0 0 0 0 0 0 0 0 0 0 0 0 0 0 0 0 0 0 0 0 0 0
0 0 0 0 0 0 0 0 0 0 0 0 0 0 0 0 0 0 0 0 0 0 0 0 0 0 0 0 0 0 0 0 0 0 0 0 0 0 0 0 0 0 0 0
0 0 0 0 0 0 0 0 0 0 0 0 0 0 0 0 0 0 0 0 0 0 0 0 0 0 0 0 0 0 0 0 0 0 0 0 0 0 0 0 0 0 0 0
0 0 0 0 0 0 0 0 0 0 0 0 0 0 0 0 0 0 0 0 0 0 0 0 0 0 0 0 0 0 0 0 0 0 0 0 0 0 0 0 0 0 0 0
0 0 0 0 0 0 0 0 0 0 0 0 0 0 0 0 0 0 0 0 0 0 0 0 0 0 0 0 0 0 0 0 0 0 0 0 0 0 0 0 0 0 0 0
0 0 0 0 0 0 0 0 0 0 0 0 0 0 0 0 0 0 0 0 0 0 0 0 0 0 0 0 0 0 0 0 0 0 0 0 0 0 0 0 0 0 0 0
0 0 0 0 0 0 0 0 0 0 0 0 0 0 0 0 0 0 0 0 0 0 0 0 0 0 0 0 0 0 0 0 0 0 0 0 0 0 0 0 0 0 0 0
CIN
0 -1 0 0 0 -4 -1 0 0 -1 0 0 0 0 0 0 0 -135 -147 -176 -164 -106 -120 -92 -112 -164 -1 0 -142 -125 -128 -173 -138 -109 -80 -79 -13 0 0 0 0 0 0 0
-2 -1 -3 -12 -13 -2 0 0 0 -1 0 0 0 0 0 0 0 -93 -122 -150 -152 -143 0 0 0 0 0 0 0 0 0 0 0 0 -36 0 0 0 0 0 0 0 0 0
0 -1 -2 -8 -10 -1 0 0 -1 0 0 0 0 0 0 0 0 0 -167 -122 -126 -202 0 0 0 0 0 0 0 0 0 0 0 0 0 0 0 0 0 0 0 0 0 0
0 -5 -10 -20 -7 0 0 -2 0 0 -1 0 0 0 0 0 0 0 0 -152 -131 -195 0 0 0 0 0 0 0 0 0 0 0 0 0 0 0 0 0 0 0 0 0 0
0 0 0 -3 0 -18 0 -6 -1 -2 0 0 0 -1 0 0 0 0 0 0 -128 0 0 0 0 0 0 0 0 0 0 0 0 0 0 0 0 0 0 0 0 0 0 0
0 0 0 -1 -70 -18 -15 -7 -3 -2 0 0 0 0 0 0 0 0 0 0 0 0 0 0 0 0 0 0 0 0 0 0 0 0 0 0 0 0 0 0 0 0 0 0
0 0 0 -5 -2 -4 -7 0 0 0 0 0 0 0 -2 0 0 0 0 0 0 0 0 0 0 0 0 0 0 0 0 0 0 0 0 0 0 0 0 0 0 0 0 0
0 0 0 -5 0 -1 -3 0 0 0 0 0 0 0 0 0 0 0 0 0 0 0 0 0 0 0 0 0 0 0 0 0 0 0 0 0 0 0 0 0 0 0 0 0
0 0 0 0 -1 -1 0 0 0 0 0 0 0 0 0 0 0 0 0 0 0 0 0 0 0 0 0 0 0 0 0 0 0 0 0 0 0 0 0 0 0 0 0 0
0 0 0 0 0 0 0 0 0 0 0 0 0 0 0 0 0 0 0 0 0 0 0 0 0 0 0 0 0 0 0 0 0 0 0 0 0 0 0 0 0 0 0 0
-11 0 0 0 0 0 0 0 0 0 0 0 0 0 0 0 0 0 0 0 0 0 0 0 0 0 0 0 0 0 0 0 0 0 0 0 0 0 0 0 0 0 0 0
0 0 0 0 0 0 0 0 0 0 0 0 0 0 0 0 0 0 0 0 0 0 0 0 0 0 0 0 0 0 0 0 0 0 0 0 0 0 0 0 0 0 0 0
-3 0 0 0 0 0 0 0 0 0 0 0 0 0 0 0 0 0 0 0 0 0 0 0 0 0 0 0 0 0 0 0 0 0 0 0 0 0 0 0 0 0 0 0
-12 0 0 0 0 0 0 0 0 0 0 0 0 0 0 0 0 0 0 0 0 0 0 0 0 0 0 0 0 0 0 0 0 0 0 0 0 0 0 0 0 0 0 0
-6 -6 0 0 0 0 0 0 0 0 0 0 0 0 0 0 0 0 0 0 0 0 0 0 0 0 0 0 0 0 0 0 0 0 0 0 0 0 0 0 0 0 0 0
0 0 0 0 0 0 0 0 0 0 0 0 0 0 0 0 0 0 0 0 0 0 0 0 0 0 0 0 0 0 0 0 0 0 0 0 0 0 0 0 0 0 0 0
-7 0 0 0 0 0 0 0 0 0 0 0 0 0 0 0 0 0 0 0 0 0 0 0 0 0 0 0 0 0 0 0 0 0 0 0 0 0 0 0 0 0 0 0
0 0 0 0 0 -1 0 0 0 0 0 0 0 0 0 0 0 0 0 0 0 0 0 0 0 0 0 0 0 0 0 0 0 0 0 0 0 0 0 0 0 0 0 0
0 0 0 -1 0 0 0 0 0 0 0 0 0 0 0 0 0 0 0 0 0 0 0 0 0 0 0 0 0 0 0 0 0 0 0 0 0 0 0 0 0 0 0 0
0 0 0 0 0 0 0 0 0 0 0 0 0 0 0 0 0 0 0 0 0 0 0 0 0 0 0 0 0 0 0 0 0 0 0 0 0 0 0 0 0 0 0 0
0 0 0 0 0 0 0 0 0 0 0 0 0 0 0 0 0 0 0 0 0 0 0 0 0 0 0 0 0 0 0 0 0 0 0 0 0 0 0 0 0 0 0 0
0 0 0 0 0 0 0 0 0 0 0 0 0 0 0 0 0 0 0 0 0 0 0 0 0 0 0 0 0 0 0 0 0 0 0 0 0 0 0 0 0 0 0 0
0 0 0 0 0 0 0 0 0 0 0 0 0 0 0 0 0 0 0 0 0 0 0 0 0 0 0 0 0 0 0 0 0 0 0 0 0 0 0 0 0 0 0 0
0 0 0 0 0 0 0 0 0 0 0 0 0 0 0 0 0 0 0 0 0 0 0 0 0 0 0 0 0 0 0 0 0 0 0 0 0 0 0 0 0 0 0 0
0 0 0 0 0 0 0 0 0 0 0 0 0 0 0 0 0 0 0 0 0 0 0 0 0 0 0 0 0 0 0 0 0 0 0 0 0 0 0 0 0 0 0 0
0 0 0 0 0 0 0 0 0 0 0 0 0 0 0 0 0 0 0 0 0 0 0 0 0 0 0 0 0 0 0 0 0 0 0 0 0 0 0 0 0 0 0 0
Wind_Speed
32 37 43 41 27 24 28 40 32 36 30 34 37 33 30 25 22 22 19 17 15 14 14 13 11 10 9 10 9 8 8 9 8 9 10 11 13 14 17 19 21 23 24 25
38 42 35 28 29 25 25 32 42 31 32 32 36 40 35 29 27 26 22 19 17 15 15 14 13 12 12 10 10 10 10 11 11 11 12 13 11 15 16 19 21 23 24 25
42 36 32 32 33 36 36 34 27 31 32 36 33 41 36 33 29 27 26 21 18 17 16 15 15 14 13 12 11 11 11 12 12 11 11 11 11 14 17 20 21 23 23 24
35 39 34 37 40 32 37 36 29 27 27 37 36 40 38 35 32 29 26 23 19 18 16 15 14 14 14 13 12 11 11 11 12 11 11 12 15 16 17 17 19 21 23 24
30 33 41 40 41 36 33 22 25 25 26 25 30 40 38 32 36 30 27 24 22 19 17 16 14 13 12 12 12 11 10 11 12 12 12 13 15 14 15 16 18 20 22 25
31 26 29 36 32 37 22 21 22 24 26 33 31 35 40 35 32 30 29 25 22 20 17 15 14 12 11 11 11 11 11 11 11 11 12 13 13 14 16 17 19 21 22 24
31 29 29 27 30 26 30 28 30 31 31 32 26 33 37 30 32 31 27 27 23 20 18 16 14 13 11 10 10 10 10 10 9 9 11 12 14 15 16 19 20 21 23 24
37 30 27 26 31 35 39 30 31 34 33 32 23 32 29 29 28 27 23 21 20 19 19 16 15 12 11 10 9 8 8 10 14 14 13 15 16 16 17 19 21 22 23 25
36 35 23 25 25 25 31 35 26 24 24 27 27 29 27 22 22 19 21 22 20 18 17 14 13 12 10 9 9 8 8 10 12 16 15 15 15 16 17 20 21 23 24 25
26 36 25 24 21 23 30 21 31 29 34 35 32 33 32 25 20 18 16 17 17 16 13 10 10 12 13 9 10 9 9 11 15 14 13 13 15 17 19 21 23 23 24 26
30 26 29 25 27 26 25 29 27 26 29 33 33 31 23 24 19 14 11 11 13 14 12 10 8 8 13 9 14 11 10 10 10 11 13 14 17 18 20 22 23 24 24 25
33 26 30 32 25 26 24 26 26 32 32 30 27 27 21 19 14 10 8 9 11 11 9 8 7 5 6 7 8 9 9 7 9 12 15 16 17 19 21 23 23 22 24 25
31 33 32 27 26 22 27 26 25 23 24 30 30 26 18 14 10 6 6 8 9 8 8 7 8 8 8 7 6 7 8 9 10 11 14 17 18 19 19 20 22 23 24 26
30 28 29 33 28 24 26 22 21 21 28 26 26 22 18 15 11 7 5 7 6 6 5 6 6 6 7 6 5 6 7 9 10 11 13 14 15 16 19 21 22 24 26 27
33 38 26 21 22 23 25 26 25 23 20 25 23 20 17 12 9 7 6 6 5 5 4 6 8 10 10 8 7 6 7 7 8 10 11 13 16 18 20 22 23 25 27 27
30 37 28 26 24 19 24 25 23 22 18 19 20 21 16 14 10 9 9 8 8 7 6 8 11 12 5 1 1 2 4 5 8 11 13 15 17 19 22 23 25 26 27 27
32 31 31 32 22 20 24 23 21 21 23 19 18 16 14 15 13 11 8 8 9 10 10 10 9 6 4 3 1 2 5 7 10 13 15 17 19 22 23 24 25 26 26 26
31 31 28 27 21 30 21 19 20 21 22 20 18 17 14 14 14 12 10 8 8 9 8 6 4 4 3 4 5 6 7 9 11 14 17 20 21 22 23 23 24 25 25 24
25 27 28 29 26 22 20 18 16 17 20 18 17 13 10 10 12 14 12 11 9 7 6 3 3 4 6 7 7 8 9 12 14 16 18 19 20 22 22 23 23 23 24 25
25 23 23 27 31 27 19 16 17 17 24 20 16 12 12 12 16 15 11 11 9 7 2 3 6 8 9 9 9 11 12 14 16 15 17 19 20 21 22 21 21 22 24 24
27 24 28 25 27 26 22 16 13 18 20 18 15 12 13 15 16 12 10 11 9 8 6 6 7 7 7 8 11 13 12 14 16 16 17 18 19 19 19 20 21 23 23 24
22 24 26 26 29 31 18 18 20 21 20 16 12 12 11 11 11 10 9 8 8 8 8 7 7 6 8 10 10 12 16 15 16 16 16 17 18 18 19 21 22 22 24 26
15 15 18 20 23 22 21 23 20 19 17 15 10 7 7 9 9 7 7 6 7 8 8 9 10 10 10 9 11 17 17 16 16 16 17 18 18 18 20 20 22 24 25 28
15 15 11 11 13 12 15 13 13 12 11 8 5 4 5 6 5 7 8 9 11 12 13 11 13 15 15 13 14 16 18 16 17 17 17 18 18 19 20 22 23 26 27 29
19 20 12 8 11 10 12 10 6 4 5 5 6 7 8 8 9 11 12 12 14 15 15 15 15 15 17 17 17 17 17 16 17 17 17 18 20 21 23 24 25 27 28 28
20 19 17 13 15 16 10 7 7 4 6 10 10 12 13 12 12 12 15 16 17 17 16 17 18 19 19 18 17 16 15 15 16 19 20 21 22 23 25 26 28 26 27 27
Wind_Direction
233 232 231 228 234 245 240 231 234 231 238 239 239 244 247 253 253 252 252 250 247 243 248 247 250 254 259 269 275 282 289 296 306 315 321 328 333 340 345 348 349 348 347 347
232 230 234 238 235 245 241 237 231 240 241 243 243 243 247 250 251 251 251 248 246 244 246 249 251 258 264 270 278 284 290 297 304 310 317 325 336 341 345 348 349 350 351 352
227 238 237 236 240 240 242 240 236 238 241 246 247 246 246 247 250 252 250 251 247 247 245 249 253 259 266 272 280 287 294 301 309 317 324 333 340 340 338 340 345 349 353 353
243 237 235 237 237 239 243 243 247 240 239 242 239 246 245 243 246 249 249 247 246 249 252 253 255 260 267 276 286 293 300 308 312 316 321 322 321 325 331 341 347 350 353 352
239 240 234 235 233 234 245 243 241 243 242 248 243 246 245 244 243 245 247 248 248 250 253 254 258 263 271 279 286 296 305 313 320 323 328 330 327 335 340 344 347 350 350 353
246 258 247 237 237 230 238 242 249 249 248 246 244 245 246 245 244 245 247 249 250 251 254 258 262 265 271 280 289 299 306 317 325 334 346 342 337 338 337 340 341 343 346 348
242 251 250 241 235 237 235 233 239 242 245 248 251 250 251 254 251 251 246 247 249 251 253 255 257 261 267 274 285 297 309 320 344 345 359 346 340 337 338 337 338 340 341 343
230 239 239 236 236 234 228 228 236 240 243 249 255 252 259 258 260 257 250 248 247 248 252 256 262 264 266 275 283 296 310 320 323 327 329 333 327 333 335 339 340 342 342 342
233 238 249 242 241 230 228 232 245 248 254 251 253 262 270 271 261 258 251 245 244 245 249 253 262 270 266 280 280 291 309 321 331 328 334 329 330 338 339 339 341 341 343 343
240 235 243 243 244 237 237 239 241 249 245 250 256 259 260 265 263 258 251 242 237 237 240 242 258 275 272 274 285 301 307 311 327 315 333 329 330 338 336 338 341 343 344 344
234 243 238 242 242 237 231 238 246 248 251 251 254 262 273 271 263 259 246 235 225 224 229 242 260 277 272 286 291 298 302 313 318 324 330 332 329 336 336 337 341 342 346 350
232 241 239 238 255 246 247 243 244 246 248 253 264 269 277 279 268 253 238 230 228 230 237 248 253 249 278 288 294 304 299 316 322 323 327 329 337 338 336 340 348 353 351 350
222 233 235 237 243 246 245 244 249 258 256 252 255 266 281 283 272 253 218 214 219 235 249 255 263 266 265 272 288 299 303 311 326 335 334 332 337 343 349 352 350 349 348 347
221 233 240 234 243 248 244 242 243 257 248 251 259 262 268 273 266 251 200 171 191 232 236 255 267 276 282 293 303 313 319 327 338 347 350 353 354 354 350 348 346 344 344 343
227 226 238 247 253 258 247 241 245 250 261 257 261 264 272 275 269 246 225 224 215 209 224 249 263 266 276 286 306 335 344 2 8 2 358 352 348 344 343 342 342 342 341 342
227 225 234 242 253 266 255 241 242 249 256 270 266 269 282 283 284 271 247 239 235 223 234 257 265 264 268 233 108 37 16 6 354 346 342 340 340 339 338 338 337 338 339 342
223 222 227 238 251 256 257 239 241 250 257 262 262 276 283 284 281 272 259 239 234 246 258 264 254 243 191 201 250 332 341 342 335 334 335 334 334 333 333 334 335 337 339 341
222 221 230 235 241 244 260 253 245 250 254 254 268 282 287 286 286 288 288 278 276 272 268 259 228 191 223 273 300 316 322 325 327 327 327 328 329 330 333 335 336 337 339 342
223 220 228 231 237 255 256 249 245 245 258 257 262 282 294 295 298 294 301 298 296 293 285 233 210 245 267 276 292 303 312 317 319 323 325 326 328 329 332 333 335 338 340 340
219 228 230 229 236 243 258 254 253 252 265 262 261 271 274 282 285 295 307 311 309 319 325 275 284 286 283 288 295 301 308 313 314 322 325 327 328 329 330 335 338 339 339 340
219 229 231 233 240 248 256 254 255 255 277 278 268 268 267 276 296 314 317 323 335 336 329 317 300 288 289 295 297 301 309 311 317 323 327 327 328 331 334 336 338 339 339 339
223 230 237 240 246 246 253 248 253 277 287 286 279 268 272 300 315 326 337 339 339 337 330 322 314 310 306 303 305 306 307 317 320 323 324 325 327 330 334 335 336 337 336 336
231 253 246 252 254 264 251 263 272 284 287 283 278 294 309 315 324 341 347 351 339 332 331 322 314 310 310 308 308 307 313 317 317 319 320 321 325 328 331 332 332 333 333 333
230 238 261 270 271 272 258 278 284 295 303 308 319 1 9 359 4 352 344 333 323 319 315 319 313 307 306 308 308 309 315 315 315 316 316 318 320 324 326 328 330 328 329 330
213 210 247 282 270 270 272 275 289 326 5 22 359 358 353 339 335 331 327 327 320 316 314 313 309 307 305 308 307 309 312 313 313 313 314 314 316 318 321 323 325 326 328 329
206 210 223 242 226 239 252 268 275 299 296 282 294 301 313 334 335 336 325 325 322 318 317 312 309 307 306 308 308 308 308 309 310 312 311 311 313 316 318 320 323 326 327 330